Warner Robins, GA

3:55 AM EDT on April 27, 2017 (GMT -0400)
Robins Air Force Base

Weather History for KWRB - October, 2013

Change the Weather History Date:

Friday, October 4, 2013

  Actual Average Record
Temperature  
Mean Temperature 73 °F -  
Max Temperature 86 °F 76 °F 89 °F (2005)
Min Temperature 60 °F 57 °F 45 °F (2011)
Cooling Degree Days 8    
Growing Degree Days 23 (Base 50)    
Moisture  
Dew Point 63 °F    
Average Humidity 84    
Maximum Humidity 100    
Minimum Humidity 47    
Precipitation  
Precipitation 0.00 in - - ()
Sea Level Pressure  
Sea Level Pressure 30.11 in    
Wind  
Wind Speed 2 mph (NNW)    
Max Wind Speed 7 mph    
Max Gust Speed -    
Visibility 10 miles    
Events      
Averages and records for this station are not official NWS values.
T = Trace of Precipitation, MM = Missing Value Source: NWS Daily Summary

Daily Weather History Graph

Daily Weather History Graph

Search for Another Location

Airport or City:

Trip Planner

Search our weather history database for the weather conditions in past years. The results will help you decide how hot, cold, wet, or windy it might be!

Date:

Astronomy

Oct. 04, 2013 Rise Set
Actual Time 7:30 AM EDT 7:14 PM EDT
Civil Twilight 7:06 AM EDT 7:39 PM EDT
Nautical Twilight 6:37 AM EDT 8:07 PM EDT
Astronomical Twilight 6:08 AM EDT 8:36 PM EDT
Moon 7:04 AM EDT (10/4) 6:58 PM EDT (10/4)
Length of Visible Light 12h 33m
Length of Day
11h 44m
Waning Crescent, 0% of the Moon is Illuminated
Oct 4
Waning Crescent
Oct 4
New
Oct 11
First Quarter
Oct 18
Full
Oct 26
Last Quarter

Hourly Weather History & Observations

Time (EDT) Temp. Heat Index Dew Point Humidity Pressure Visibility Wind Dir Wind Speed Gust Speed Precip Events Conditions
12:58 AM 64.6 °F - 63.5 °F 96% 30.10 in 10.0 mi NNW 1.2 mph - N/A   Clear
1:58 AM 63.5 °F - 62.4 °F 96% 30.10 in 10.0 mi NNW 2.3 mph - N/A   Clear
2:48 AM 62.6 °F - 62.6 °F 100% 30.10 in 9.0 mi North 1.2 mph - N/A   Clear
2:53 AM 62.6 °F - 62.6 °F 100% 30.10 in 10.0 mi North 1.2 mph - N/A   Clear
2:58 AM 63.1 °F - 62.4 °F 97% 30.09 in 10.0 mi NNW 1.2 mph - N/A   Clear
3:18 AM 62.6 °F - 62.6 °F 100% 30.09 in 9.0 mi NNW 1.2 mph - N/A   Clear
3:33 AM 62.6 °F - 60.8 °F 94% 30.09 in 10.0 mi Calm Calm - N/A   Clear
3:43 AM 62.6 °F - 62.6 °F 100% 30.08 in 9.0 mi Calm Calm - N/A   Clear
3:58 AM 62.2 °F - 61.5 °F 97% 30.09 in 10.0 mi NNW 2.3 mph - N/A   Clear
4:03 AM 62.6 °F - 60.8 °F 94% 30.09 in 9.0 mi North 2.3 mph - N/A   Clear
4:58 AM 61.7 °F - 60.8 °F 97% 30.09 in 8.0 mi NW 3.5 mph - N/A   Clear
5:53 AM 60.8 °F - 60.8 °F 100% 30.10 in 10.0 mi NNW 1.2 mph - N/A   Clear
5:58 AM 61.2 °F - 60.1 °F 96% 30.10 in 10.0 mi Calm Calm - N/A   Clear
6:58 AM 60.6 °F - 59.7 °F 97% 30.12 in 10.0 mi NW 2.3 mph - N/A   Clear
7:58 AM 60.6 °F - 59.5 °F 96% 30.14 in 10.0 mi NNW 2.3 mph - N/A   Clear
8:58 AM 65.1 °F - 62.6 °F 92% 30.16 in 10.0 mi NNW 2.3 mph - N/A   Clear
9:58 AM 70.9 °F - 65.7 °F 83% 30.17 in 10.0 mi Variable 1.2 mph - N/A   Clear
10:58 AM 76.6 °F - 67.6 °F 74% 30.17 in 10.0 mi Variable 1.2 mph - N/A   Clear
11:58 AM 81.3 °F 83.5 °F 66.0 °F 60% 30.16 in 10.0 mi SSE 4.6 mph - N/A   Clear
12:58 PM 83.3 °F 85.3 °F 65.5 °F 55% 30.14 in 10.0 mi Variable 3.5 mph - N/A   Scattered Clouds
1:58 PM 85.1 °F 86.9 °F 64.9 °F 51% 30.12 in 10.0 mi NE 6.9 mph - N/A   Partly Cloudy
2:58 PM 83.8 °F 84.7 °F 63.0 °F 49% 30.10 in 10.0 mi Variable 4.6 mph - N/A   Clear
3:58 PM 86.0 °F 87.1 °F 63.5 °F 47% 30.08 in 10.0 mi Variable 5.8 mph - N/A   Clear
4:58 PM 84.9 °F 85.6 °F 62.6 °F 47% 30.08 in 10.0 mi Variable 3.5 mph - N/A   Clear
5:58 PM 84.4 °F 85.2 °F 62.6 °F 48% 30.08 in 10.0 mi NE 3.5 mph - N/A   Clear
6:58 PM 79.7 °F - 67.6 °F 66% 30.09 in 10.0 mi NE 2.3 mph - N/A   Clear
7:58 PM 72.3 °F - 68.2 °F 87% 30.10 in 10.0 mi Calm Calm - N/A   Clear
8:58 PM 70.3 °F - 67.1 °F 89% 30.11 in 10.0 mi NW 1.2 mph - N/A   Clear
9:58 PM 69.1 °F - 67.1 °F 93% 30.12 in 10.0 mi Calm Calm - N/A   Clear
10:58 PM 67.8 °F - 66.0 °F 94% 30.12 in 10.0 mi NNW 1.2 mph - N/A   Clear
11:58 PM 66.6 °F - 65.3 °F 96% 30.12 in 10.0 mi NNW 3.5 mph - N/A   Clear